Home > Weather > Tabatinga > Past weeks

Flag for Brazil Past Weather in Tabatinga, Amazonas, Brazil — Yesterday and Last 2 Weeks

Now
73 °F

Partly sunny.


Feels Like: 68 °F
Forecast: 76 / 89 °F
Wind: 2 mph from North

Location: Leticia / Vasquez Cobo

Current Time: Aug 27, 2016 at 6:59:52 AM

Latest Report: Aug 27, 2016 at 6:00 AM


Visibility: N/A

Pressure: 29.88 "Hg

Humidity: 100%

Dew Point: 73 °F

Location of TabatingaLocation

Past Weather in Tabatinga — Graph

°F

Tabatinga Temperature Yesterday

Maximum temperature yesterday: 81 °F (at 9:00 AM)
Minimum temperature yesterday: 73 °F (at 3:00 AM)
Average temperature yesterday: 76 °F

High & Low Weather Summary for the Past Weeks

 TemperatureHumidityPressure
High93 °F (Aug 15, 1:00 PM)100% (Aug 12, 5:00 AM)30.07 "Hg (Aug 12, 5:00 AM)
Low70 °F (Aug 23, 4:00 AM)24% (Aug 22, 6:00 PM)29.74 "Hg (Aug 19, 4:00 PM)
Average80 °F84%29.89 "Hg
* Reported Aug 12 5:00 AM — Aug 27 5:00 AM, Tabatinga, Weather by CustomWeather, © 2016

Note: Actual official high and low records may vary slightly from our data, if they occured in-between our weather recording intervals... More about our weather records

Advertising

Tabatinga Weather History for the Previous 24 Hours

Scroll right to see more
 ConditionsComfort  
Time TempWeatherWind HumidityBarometerVisibility
5:00 AM
Sat, Aug 27
73 °FPassing clouds.No wind94%29.87 "HgN/A
4:00 AM73 °FPassing clouds.No wind94%29.86 "HgN/A
3:00 AM73 °FPassing clouds.No wind100%29.84 "HgN/A
2:00 AM73 °FPassing clouds.No wind100%29.85 "HgN/A
1:00 AM73 °FPassing clouds.No wind100%29.86 "HgN/A
12:00 AM73 °FPassing clouds.No wind94%29.89 "HgN/A
11:00 PM
Fri, Aug 26
73 °FClear.No wind94%29.90 "Hg10 mi
10:00 PM73 °FClear.No wind94%29.91 "Hg10 mi
9:00 PM73 °FClear.No wind100%29.90 "Hg10 mi
8:00 PM73 °FPassing clouds.No wind100%29.88 "HgN/A
7:00 PM73 °FPassing clouds.No wind100%29.84 "HgN/A
6:00 PM75 °FPassing clouds.No wind94%29.81 "HgN/A
5:00 PM77 °FPartly sunny.No wind89%29.81 "HgN/A
4:00 PM77 °FMore clouds than sun.No wind89%29.82 "HgN/A
3:00 PM77 °FMore clouds than sun.No wind89%29.85 "HgN/A
2:00 PM77 °FMore clouds than sun.No wind89%29.88 "HgN/A
1:00 PM75 °FMore clouds than sun.No wind94%29.91 "HgN/A
12:00 PM73 °FLight rain. More clouds than sun.No wind100%29.94 "Hg5 mi
11:00 AM79 °FThunderstorms. Partly sunny.5 mph89%29.96 "Hg5 mi
10:00 AM79 °FPartly sunny.No wind89%29.96 "HgN/A
9:00 AM81 °FDrizzle. Partly sunny.2 mph84%29.95 "Hg2 mi
8:00 AM77 °FFog.3 mph94%29.94 "Hg2 mi
7:00 AM75 °FFog.3 mph100%29.92 "Hg1 mi
6:00 AM75 °FFog.3 mph100%29.90 "Hg1 mi
Weather by CustomWeather, © 2016

See weather overviewHow to use our weather pages